Location: lozzo di cadore
(46.4899°N, 12.4508°E)
Time: 18:22:59
(UTC+02:00)

Envisat - Visible Passes

Search period start: 21 May 2026 00:00
Search period end: 31 May 2026 00:00
Orbit: 761 x 762 km, 98.4° (Epoch: 21 May)

Date Brightness Start Highest point End Pass type
(mag) Time Alt. Az. Time Alt. Az. Time Alt. Az.
21 May 3.2 03:45:38 10° NNE 03:50:43 71° ESE 03:55:10 13° S visible
22 May 4.3 03:08:10 10° NNE 03:12:44 33° E 03:16:56 12° SSE visible
22 May 3.9 04:47:05 10° N 04:51:39 35° WNW 04:56:11 10° SW visible
23 May 5.3 02:31:33 10° NE 02:34:32 16° E 02:37:31 10° SE visible
23 May 3.0 04:08:57 10° N 04:14:00 73° WNW 04:18:50 11° SSW visible
24 May 3.6 03:31:12 10° NNE 03:36:10 53° E 03:40:37 13° S visible
25 May 4.8 02:53:57 10° NE 02:58:06 25° E 03:02:13 10° SSE visible
25 May 3.5 04:32:24 10° N 04:37:13 46° WNW 04:42:01 10° SW visible
26 May 5.5 02:18:15 10° ENE 02:19:49 11° E 02:21:22 10° ESE visible
26 May 3.0 03:54:25 10° NNE 03:59:30 85° ESE 04:04:16 12° SSW visible
27 May 4.1 03:16:49 10° NNE 03:21:35 39° E 03:26:02 11° SSE visible
28 May 5.1 02:39:53 10° NE 02:43:25 19° E 02:46:56 10° SE visible
28 May 3.2 04:17:46 10° N 04:22:46 61° WNW 04:27:44 10° SSW visible
29 May 3.3 03:39:55 10° NNE 03:44:58 64° ESE 03:49:41 12° S visible
30 May 4.5 03:02:31 10° NE 03:06:57 30° E 03:11:21 10° SSE visible
30 May 3.7 04:41:16 10° N 04:45:57 39° WNW 04:50:36 10° SW visible
